Terug naar catalogus

FENGYUN 1C DEB

ActiefSSO
NORAD 31237·DEBRIS·🇨🇳 China

Gelanceerd May 10, 1999 vanaf Taiyuan Satellite Launch Center

Loading…

Volgende Passages (komende 24 uur)

TLE

VersSource: Space-Track

Epoch: Sep 13, 2026, 17:13 UTC

1 31237U 99025BLT 26256.71770554  .00000648  00000-0  24680-3 0  9999
2 31237  98.4652 253.6777 0086681 254.5739 104.5858 14.32074397 11961

Volg FENGYUN 1C DEB in realtime met AllMySat

Download on the App Store